Tracking 31011 objects as of 13-Jul-2025
HD Live streaming from Space Station
objects crossing your sky now

OBJECT W

Track OBJECT W now!
10-day predictions


NORAD ID: 56866
Int'l Code: 2023-081W
Perigee: 505.7 km
Apogee: 524.8 km
Inclination: 97.3 °
Period: 94.8 minutes
Semi major axis: 6886 km
RCS: Unknown
Launch date: June 7, 2023
Source: (TBD)
Launch site: Jiuquan Satellite Launch Center, China (JSC)
Your satellite tracking list
Your tracking list is empty




NASA's NSSDC Master Catalog

Two Line Element Set (TLE):
1 56866U 23081W   25193.81953695  .00005381  00000-0  25776-3 0  9998
2 56866  97.3349 261.6316 0013874 122.8090 237.4483 15.19262253116407
Source of the keplerian elements: AFSPC